RH
86 87 83 77 78 78 78 74 78 80 79 74 66 62 68 75 77 80 79 81 87 88 88 85 85 90 78 76 83 85 87 92 88 92 92 85 86 89 92 89 88 89 95
84 88 88 85 80 76 76 79 79 82 82 78 75 64 73 79 74 80 82 86 84 86 82 79 81 94 86 78 80 83 94 90 93 96 89 81 86 86 85 84 82 79 85
86 88 88 86 84 83 84 90 91 87 86 84 84 70 72 89 80 80 81 89 83 76 78 82 88 87 88 79 83 91 92 90 90 92 88 86 86 87 87 80 76 76 77
87 85 87 86 84 84 84 89 96 100 97 91 88 78 74 93 79 74 79 83 80 76 73 74 78 77 77 84 87 90 90 92 95 90 89 87 88 86 80 78 72 70 71
91 87 84 83 79 83 81 78 100 97 99 86 90 78 81 90 77 76 77 83 74 72 70 82 79 80 76 78 95 91 91 94 91 85 94 93 91 90 86 78 70 69 69
89 95 94 88 85 82 84 99 99 97 92 92 93 92 87 89 79 71 71 71 70 72 71 75 74 79 76 74 80 88 84 85 91 91 89 94 96 96 93 83 78 70 74
84 89 93 96 92 88 86 87 100 96 100 94 99 100 94 83 75 67 67 68 67 69 67 72 76 80 77 74 76 82 88 86 89 87 92 94 93 92 92 91 89 79 58
81 86 90 95 97 98 91 94 98 100 99 97 94 94 96 84 70 68 71 70 70 72 72 68 68 74 77 76 77 78 83 86 86 89 91 86 87 88 90 87 86 93 74
85 82 87 95 97 99 100 100 100 99 93 100 91 74 89 81 86 77 72 72 72 74 76 76 72 67 69 72 70 71 73 77 84 87 85 85 84 85 86 84 65 68 54
82 86 89 91 97 100 100 99 100 100 98 98 95 73 64 71 80 94 73 67 71 74 75 76 71 66 66 66 69 69 66 66 70 83 81 85 84 79 75 68 65 61 53
86 84 92 96 96 100 100 100 100 100 98 96 93 96 76 66 67 84 96 80 64 63 70 71 68 62 61 66 67 68 67 68 67 63 69 81 86 89 86 84 83 80 81
92 95 98 99 98 100 100 100 100 100 99 97 95 85 76 73 73 71 89 83 72 61 59 69 66 63 59 67 66 65 67 68 68 69 70 65 79 87 89 92 87 84 87
98 99 98 98 100 99 100 100 100 100 99 99 97 87 78 74 64 58 68 83 83 72 62 64 60 56 61 62 60 61 64 67 67 65 66 65 63 58 59 75 87 89 89
96 98 98 100 95 98 100 100 100 100 100 100 96 93 81 75 74 64 64 75 87 81 68 59 58 58 56 56 57 57 61 61 63 65 70 69 63 64 65 61 61 61 60
99 85 98 100 100 100 100 100 100 100 100 99 96 90 91 86 81 65 60 63 67 86 85 68 64 60 63 63 61 61 63 61 60 67 68 65 62 65 66 64 66 68 69
89 92 100 100 98 100 99 100 100 100 100 100 96 98 99 90 81 65 55 53 68 77 86 62 60 55 57 61 61 63 64 62 62 64 61 62 62 62 63 58 56 56 55
93 95 100 100 100 100 99 100 100 100 100 100 100 94 95 89 81 77 71 63 56 67 86 75 68 61 60 62 62 63 64 66 65 66 61 58 61 60 58 54 52 54 55
97 100 100 99 100 98 98 100 99 98 95 98 98 97 95 92 90 82 75 66 66 73 74 80 72 64 64 61 60 67 70 69 68 69 66 56 56 57 58 61 64 68 70
99 100 98 97 99 96 96 100 100 95 99 97 94 94 95 96 92 85 81 74 74 77 75 81 78 72 69 68 66 64 62 58 55 55 57 61 64 69 74 75 75 75 78
98 100 93 93 99 100 97 99 100 99 97 98 100 99 98 96 92 93 87 88 79 81 83 82 79 74 71 69 70 70 72 70 71 72 78 84 87 89 93 91 91 93 91
96 94 96 100 100 100 100 100 100 100 100 100 100 100 98 95 92 91 86 89 85 78 77 83 89 86 85 82 79 79 86 90 97 99 100 100 100 100 100 100 100 99 100
100 100 100 100 100 100 100 100 100 100 100 100 100 99 99 100 100 97 92 88 84 86 82 80 80 82 79 83 95 100 100 97 98 96 98 100 100 100 100 99 98 94 91
100 100 100 100 100 100 100 100 100 100 100 100 100 100 100 100 99 100 97 91 88 88 89 88 93 99 100 100 100 99 99 100 100 99 97 100 100 100 98 100 97 95 93
100 100 100 100 100 100 100 100 100 100 100 100 100 100 100 100 100 100 100 100 100 100 100 100 100 100 100 100 98 100 100 100 100 99 99 100 100 100 100 99 98 96 90
99 100 100 99 100 100 100 100 100 100 100 99 100 100 100 100 99 100 100 99 100 100 100 99 99 98 99 98 95 99 97 98 100 100 95 100 100 100 100 97 96 97 97
100 97 98 98 99 99 100 100 100 100 99 100 100 96 96 97 99 100 100 100 99 100 99 98 97 93 83 80 76 85 93 95 99 98 100 96 98 99 99 100 98 90 78
Wind_Speed
26 27 27 25 24 26 27 25 25 24 22 22 22 24 19 18 22 24 25 23 22 22 22 20 19 20 19 19 18 17 16 16 15 16 15 15 16 16 16 15 14 13 12
25 28 28 26 26 28 27 27 28 27 24 25 23 24 21 18 26 27 28 24 24 24 22 21 20 20 20 19 17 16 16 16 15 15 14 14 15 15 14 13 12 12 12
25 25 28 27 27 26 26 27 27 27 26 26 25 24 22 18 26 29 29 28 24 22 23 22 22 21 20 19 18 17 16 17 16 16 15 14 15 14 13 12 12 11 11
27 27 28 31 28 25 26 33 32 30 28 27 27 26 24 15 29 29 29 28 26 22 21 22 21 22 20 20 18 17 18 18 17 16 15 16 15 15 14 12 12 12 11
28 29 29 29 28 24 26 29 29 28 29 29 29 26 25 15 31 31 31 31 27 24 22 23 21 22 20 17 18 18 18 17 16 15 15 15 16 15 14 13 13 13 12
29 31 28 26 25 23 27 28 27 28 30 30 28 27 27 20 30 32 32 28 26 26 23 23 21 22 19 16 16 18 18 17 17 17 16 16 16 16 16 15 15 14 13
25 27 29 29 28 27 29 30 28 29 26 29 22 18 21 21 32 29 28 26 28 27 25 24 23 23 21 20 20 20 19 19 18 19 19 18 18 17 17 17 17 16 16
26 27 27 28 28 28 31 33 32 23 19 31 17 14 4 9 16 28 28 27 28 29 27 27 26 26 25 24 24 22 21 21 20 20 20 20 19 19 19 19 19 19 18
26 26 28 29 28 29 30 33 34 31 25 29 26 12 4 5 7 12 21 22 29 30 30 28 27 25 25 26 25 26 25 25 25 24 22 23 22 21 21 21 21 21 20
27 29 29 29 28 30 29 35 34 34 27 28 27 22 11 18 7 2 10 19 22 27 28 31 30 26 25 24 25 27 26 25 27 28 25 26 26 23 24 23 23 23 22
31 28 27 27 28 29 31 34 34 33 37 32 31 20 14 25 20 5 3 8 20 25 19 32 32 27 28 28 26 27 25 22 22 27 29 30 30 28 27 26 25 25 25
28 25 26 27 29 29 31 35 36 36 34 32 29 26 20 17 15 8 3 5 15 24 28 17 32 33 27 29 25 22 23 23 22 22 25 28 32 32 31 31 30 30 30
26 28 24 27 27 28 29 32 33 32 33 35 33 28 26 20 21 18 10 7 5 13 19 24 23 25 25 28 28 27 26 25 26 27 28 27 28 32 35 36 36 35 34
26 25 25 24 22 21 28 31 33 31 34 35 35 30 29 26 13 25 11 13 3 8 12 17 32 30 30 31 34 32 31 32 32 31 30 29 30 32 34 35 38 39 40
26 24 26 22 17 17 21 26 27 36 31 32 32 35 30 29 20 17 14 12 8 4 7 17 14 31 32 32 30 32 32 31 30 33 35 35 35 35 36 37 39 41 42
24 25 27 23 20 20 22 25 24 31 37 33 32 31 31 29 25 21 19 12 7 6 3 10 21 19 28 30 29 27 28 28 29 32 31 32 33 35 37 36 38 38 40
24 27 28 25 24 23 22 26 24 29 31 30 31 32 31 31 28 25 19 18 16 12 7 9 14 13 10 17 25 27 25 26 29 29 26 28 30 33 35 38 40 42 41
23 27 28 25 26 25 24 26 27 25 27 30 32 31 32 31 25 24 24 25 27 23 19 15 20 22 18 19 20 23 23 24 24 26 32 40 42 42 42 43 46 48 47
25 25 24 26 28 28 26 27 27 30 27 29 31 33 31 29 26 23 25 28 27 23 23 21 22 23 21 19 22 24 28 31 34 39 39 38 37 40 43 47 50 47 44
25 24 23 25 26 27 30 31 29 30 30 29 29 32 31 31 29 30 31 25 23 19 21 23 24 24 24 23 24 26 27 29 29 25 20 19 20 19 19 21 26 26 31
20 21 22 21 21 22 22 27 28 28 30 28 29 30 30 30 30 31 30 32 30 27 26 16 15 17 18 15 20 22 21 19 12 11 4 3 3 2 3 6 8 10 13
15 18 19 17 18 17 20 24 24 25 25 23 25 28 28 27 27 30 29 28 26 26 26 21 17 16 18 16 13 9 6 3 3 10 7 3 4 5 5 6 10 11 12
18 19 17 14 9 9 15 21 21 18 17 15 14 14 19 19 23 16 18 28 24 23 23 22 18 13 10 11 12 13 13 7 3 9 10 1 2 5 5 10 12 12 13
26 26 22 21 18 14 7 11 18 17 16 12 9 8 8 7 7 11 13 10 8 5 2 4 6 6 6 7 6 6 6 4 5 2 1 5 2 5 5 8 10 10 9
32 33 28 25 24 20 12 12 18 21 21 20 16 11 7 4 4 8 13 18 18 18 18 17 16 13 9 5 2 4 3 5 4 4 8 3 5 4 4 7 7 8 9
35 35 34 31 27 24 19 19 18 23 28 27 25 24 19 11 10 11 13 19 25 22 20 20 19 18 18 17 15 11 5 7 6 4 9 4 4 2 3 6 9 12 14
Wind_Direction
181 181 186 194 193 193 196 198 200 204 206 200 195 199 196 200 196 178 173 173 171 166 162 166 167 163 168 166 170 167 162 158 158 156 159 160 156 159 157 160 156 151 147
188 190 189 193 199 196 199 204 205 209 206 205 211 208 200 208 196 181 174 174 174 169 163 170 170 166 167 174 175 176 166 162 167 165 172 168 170 175 174 171 168 165 162
188 190 191 190 192 196 201 208 213 215 212 214 217 204 203 190 191 180 175 173 173 175 171 175 175 171 174 180 183 178 176 174 174 178 181 177 186 187 188 183 181 180 178
191 189 190 193 199 207 212 213 214 208 207 206 205 198 201 211 190 180 177 176 174 172 179 180 182 180 184 185 187 184 184 183 182 180 189 193 196 201 200 198 196 196 194
194 198 199 200 202 204 207 213 202 198 195 197 201 192 195 194 180 177 178 179 176 177 183 185 188 187 190 196 189 190 192 190 188 192 197 206 206 209 210 211 210 209 208
205 205 205 209 210 205 206 211 203 198 197 196 190 194 190 193 168 175 178 181 182 182 188 190 195 195 195 194 201 194 198 199 198 200 206 212 217 218 220 220 220 220 222
207 210 215 219 219 212 211 215 199 195 189 193 173 176 191 202 178 179 179 182 183 188 192 194 198 199 200 201 208 205 205 209 210 209 208 215 225 228 230 230 230 228 227
208 209 214 216 217 215 214 207 197 183 184 187 175 154 141 171 157 181 184 186 187 193 195 196 199 205 207 207 208 217 214 212 219 222 220 222 229 235 239 239 238 236 236
204 214 214 215 214 211 201 200 194 185 181 186 180 168 143 179 133 164 168 181 197 197 201 201 202 208 214 217 219 221 224 219 216 222 228 236 231 236 239 242 243 243 243
217 216 216 217 210 208 200 201 197 190 182 181 180 183 183 160 161 166 202 191 182 199 206 208 206 214 219 219 222 226 228 230 225 223 223 234 241 239 242 244 246 247 246
212 208 210 216 216 204 209 208 199 192 185 186 182 196 192 170 177 159 167 208 210 211 204 216 213 213 218 223 227 231 233 234 236 233 231 230 238 246 250 253 255 257 255
197 201 207 213 217 218 215 212 208 193 187 183 182 184 176 167 177 152 126 192 210 216 220 217 219 222 220 227 225 227 228 233 240 243 243 243 244 244 249 254 256 258 261
199 207 213 218 216 220 221 213 193 186 184 182 183 186 181 168 191 189 176 176 189 212 222 224 218 221 215 221 234 242 241 243 248 250 248 248 250 250 251 252 255 259 262
203 203 207 212 216 215 219 210 203 192 186 183 184 187 188 187 202 204 186 159 147 188 200 217 225 231 232 236 240 240 241 245 249 252 253 255 257 256 257 258 258 260 262
199 209 202 206 210 208 212 209 199 195 182 181 186 192 188 197 212 192 169 171 151 162 213 211 209 230 234 235 239 242 243 247 248 251 255 258 259 260 261 262 264 264 265
201 208 200 200 196 200 203 198 194 191 194 192 189 191 196 202 205 201 203 206 205 171 204 215 232 227 234 239 245 246 248 252 257 256 256 260 261 262 262 263 265 266 268
196 205 202 199 196 188 189 189 182 173 170 174 184 195 200 204 213 220 233 248 250 243 215 227 243 218 235 241 247 248 249 253 254 256 259 271 269 266 264 263 265 271 272
196 196 202 202 202 195 188 197 191 187 184 182 190 199 207 211 219 233 242 244 239 231 231 241 251 261 260 250 246 244 246 248 254 259 264 273 271 268 269 270 272 273 272
189 195 204 204 204 203 196 204 205 202 204 204 207 208 209 218 224 228 232 236 237 236 235 231 246 255 251 247 260 264 266 270 271 276 277 276 274 269 269 271 271 272 272
188 190 203 208 202 203 206 210 208 211 214 217 218 221 222 226 231 231 229 230 235 233 231 230 240 250 254 254 255 266 269 270 273 277 275 263 262 261 265 268 276 281 281
189 194 195 197 201 197 197 203 205 205 211 214 221 226 228 234 238 237 233 239 241 238 234 232 235 244 250 250 249 256 243 266 261 276 287 248 292 281 319 308 301 302 322
162 166 163 164 174 183 194 202 206 209 215 219 222 231 234 234 239 235 238 236 237 232 231 228 236 236 250 247 236 199 204 250 238 263 302 284 342 19 25 21 19 19 18
114 120 121 124 118 176 199 200 197 190 194 193 198 187 192 206 214 204 222 217 224 231 236 237 236 239 263 261 267 269 269 252 239 279 296 212 329 81 66 56 66 60 55
75 78 82 75 72 69 120 166 183 160 146 137 141 148 162 170 173 182 194 166 144 155 196 218 222 222 251 264 263 260 259 226 189 169 317 155 121 101 103 84 59 52 46
72 67 68 68 64 58 76 129 141 126 110 95 88 93 104 101 124 144 175 135 112 97 93 98 102 98 79 65 76 165 228 192 130 63 35 97 58 118 81 65 65 54 43
78 76 69 68 62 64 71 92 113 115 101 90 78 70 66 77 91 134 146 143 125 120 112 104 95 88 79 68 69 73 87 112 112 97 29 87 71 90 103 79 51 34 32